Other Public Products
Issued by NWS Charleston, SC

Current Version | Previous Version | Graphics & Text | Print | Product List | Glossary On
Versions: 1 2 3 4 5 6 7 8 9 10 11 12 13 14 15 16 17 18 19 20 21 22 23 24 25 26 27 28 29 30 31 32 33 34 35 36 37 38 39 40 41 42 43 44 45 46 47 48 49 50
000 FPUS82 KCHS 201912 OPUCHS TEST...KCHS/KSAV Gateway Observations...TEST National Weather Service Charleston SC 300 PM EDT SUN AUG 20 2017 NOTE: "fair" indicates few or no clouds below 12,000 feet with no significant weather and/or obstructions to visibility. SCZ050-WAZ558-NCZ071-TXZ119-213-PAZ071-DCZ001-FLZ074-172-MI076- NYZ176-178-MAZ016-IL014-TNZ027-NJZ106-GAZ044-MD014-202000- ...Gateway Observations for Charleston International... CITY SKY/WX TMP DP RH WIND PRES REMARKS Chas Airport PTSUNNY 90 75 62 SE13 30.06S HX 100 Seattle PTSUNNY 68 51 54 W8 30.16F Charlotte MOSUNNY 92 66 42 VRB5 30.10F HX 94 Dallas DFW MOSUNNY 96 70 42 VRB6 29.98F HX 102 Dallas Love MOSUNNY 95 68 41 S9 29.99F HX 99 Philladelphia MOSUNNY 84 55 36 NW8G17 30.10F Wash National SUNNY 87 62 43 N6 30.12F Baltimore MOSUNNY 84 59 42 N7 30.11F Miami PTSUNNY 89 76 65 E10 30.02F HX 100 Detroit PTSUNNY 82 59 45 S8 30.09F Newark PTSUNNY 83 58 42 NW13G21 30.07F Laguardia PTSUNNY 82 60 47 NW9 30.06S J F K MOSUNNY 84 60 44 NW14G23 30.07S Boston Logan PTSUNNY 82 57 42 NW13 29.97R Ft. Lauderdale PTSUNNY 89 77 67 NE10 30.02S HX 101 Chicago O`Hare PTSUNNY 87 65 47 W9 30.00F Chicago Midway PTSUNNY 88 66 48 SW9 30.01F HX 90 Houston Bush MOSUNNY 95 70 44 VRB7 30.01F HX 101 Houston Hobby PTSUNNY 96 70 42 SE8 29.99F HX 102 Nashville PTSUNNY 93 63 36 VRB5 30.08F HX 94 Atlanta PTSUNNY 90 66 45 VRB3 30.10F HX 92 $$ GAZ044-118-TXZ119-213-NCZ071-DCZ001-MDZ014-506-PAZ021-071-NJZ106- NYZ176-178-MAZ106-OHZ011-021-055-MIZ076-KYZ091-ILZ014-INZ047- MNZ060-ONZ431-202000- ...Gateway Observations for Savannah International... CITY SKY/WX TMP DP RH WIND PRES REMARKS Savannah Arpt PTSUNNY 89 72 56 S14 30.05F HX 96 Atlanta PTSUNNY 90 66 45 VRB3 30.10F HX 92 Charlotte MOSUNNY 92 66 42 VRB5 30.10F HX 94 Dallas DFW MOSUNNY 96 70 42 VRB6 29.98F HX 102 Houston Bush MOSUNNY 95 70 44 VRB7 30.01F HX 101 Wash National SUNNY 87 62 43 N6 30.12F Wash Dulles MOSUNNY 85 62 46 CALM 30.13F Baltimore MOSUNNY 84 59 42 N7 30.11F Philadelphia MOSUNNY 84 55 36 NW8G17 30.10F Newark PTSUNNY 83 58 42 NW13G21 30.07F Laguardia PTSUNNY 82 60 47 NW9 30.06S J F K MOSUNNY 84 60 44 NW14G23 30.07S Boston PTSUNNY 82 57 42 NW13 29.97R Pittsburg MOSUNNY 80 58 46 CALM 30.15F Akron MOSUNNY 85 56 37 S8 30.13F Cleveland MOSUNNY 88 56 33 VRB3 30.12F Cincinnati MOSUNNY 89 68 49 SW8 30.08F HX 93 Columbus MOSUNNY 85 70 61 SW5 30.09F Detroit PTSUNNY 82 59 45 S8 30.09F Chicago O`Hare PTSUNNY 87 65 47 W9 30.00F Minneapolis PTSUNNY 84 69 60 NW6 29.93S Indianapolis CLOUDY 90 63 40 VRB5 30.05F HX 91 Toronto Canada PTSUNNY 81 63 54 W15 30.05F $$

USA.gov is the U.S. government's official web portal to all federal, state and local government web resources and services.